K4AVM-13 Weather Reports


time (UTC)temp
C
wind
direction
speed
KPH
gust
KPH
rain 1hr
cm
rain 24hr
cm
rain mn
cm
humidity
%
barometer
mb
20260905235007 23 258 0.0 0.0 0.00 1.07 1.07 94 1012.1
20260905234502 23 262 0.0 0.0 0.00 1.07 1.07 92 1012.1
20260905233956 23 265 0.0 0.0 0.00 1.07 1.07 92 1012.0
20260905233452 24 277 0.0 0.0 0.00 1.07 1.07 91 1012.0
20260905232950 24 296 0.0 0.0 0.00 1.07 1.07 91 1011.9
20260905232447 24 273 0.0 0.0 0.00 1.07 1.07 91 1011.8
20260905231943 24 343 0.0 0.0 0.00 1.07 1.07 90 1012.0
20260905231438 24 302 0.0 0.0 0.00 1.07 1.07 90 1012.1
20260905230934 25 273 0.0 0.0 0.00 1.07 1.07 90 1012.2
20260905230433 25 309 0.0 0.0 0.00 1.07 1.07 89 1012.1
20260905225931 25 262 0.0 0.0 0.00 1.07 1.07 88 1012.4
20260905225427 25 274 0.0 1.6 0.00 1.07 1.07 88 1012.3
20260905224921 25 5 0.0 1.6 0.00 1.07 1.07 87 1012.3
20260905224418 25 290 1.6 3.2 0.00 1.07 1.07 87 1012.4
20260905223917 25 288 0.0 0.0 0.00 1.07 1.07 88 1012.2
20260905223415 25 312 1.6 3.2 0.00 1.07 1.07 88 1012.1
20260905222915 25 308 0.0 1.6 0.00 1.07 1.07 89 1012.4
20260905222414 25 254 0.0 0.0 0.00 1.07 1.07 89 1012.3
20260905221910 25 273 0.0 0.0 0.00 1.07 1.07 88 1012.0
20260905221406 25 296 0.0 0.0 0.00 1.07 1.07 88 1012.1
20260905220856 25 290 0.0 1.6 0.00 1.07 1.07 87 1012.2
20260905220352 26 256 0.0 0.0 0.00 1.07 1.07 87 1012.1
20260905215852 26 273 0.0 1.6 0.00 1.07 1.07 86 1011.9
20260905215348 26 263 0.0 0.0 0.00 1.07 1.07 84 1011.8
20260905214844 26 263 0.0 0.0 0.00 1.07 1.07 84 1011.9
20260905214339 26 260 0.0 0.0 0.00 1.07 1.07 85 1012.2
20260905213833 26 271 0.0 1.6 0.00 1.07 1.07 87 1012.2
20260905213330 25 286 0.0 0.0 0.00 1.07 1.07 88 1012.1
20260905212825 25 308 0.0 0.0 0.00 1.07 1.07 89 1012.2
20260905212324 25 321 1.6 1.6 0.00 1.07 1.07 89 1012.1
20260905211819 25 108 0.0 3.2 0.00 1.07 1.07 88 1012.1
20260905211314 25 220 0.0 1.6 0.00 1.07 1.07 89 1012.2
20260905210811 24 317 1.6 4.8 0.00 1.07 1.07 96 1012.5
20260905210310 23 298 0.0 1.6 0.00 1.07 1.07 99 1012.3
20260905205809 23 247 0.0 1.6 0.00 1.07 1.07 99 1012.3
20260905205306 23 253 0.0 0.0 0.00 1.07 1.07 99 1012.5
20260905204803 23 276 1.6 1.6 0.00 1.07 1.07 99 1012.4
20260905204300 23 288 0.0 1.6 0.00 1.07 1.07 99 1012.3
20260905203758 23 278 0.0 0.0 0.00 1.07 1.07 99 1012.5
20260905203254 22 258 0.0 0.0 0.00 1.07 1.07 99 1012.3
20260905202750 22 251 0.0 0.0 0.00 1.07 1.07 99 1012.2
20260905202244 22 249 0.0 1.6 0.00 1.07 1.07 99 1012.0
20260905201740 23 230 0.0 1.6 0.00 1.07 1.07 99 1012.2
20260905201235 22 228 0.0 1.6 0.00 1.07 1.07 99 1012.0
20260905200730 23 237 0.0 0.0 0.00 1.07 1.07 99 1011.8
20260905200226 22 250 0.0 0.0 0.00 1.07 1.07 99 1012.2
20260905195218 22 284 0.0 0.0 0.00 1.07 1.07 99 1012.3
20260905194714 22 286 0.0 0.0 0.00 1.07 1.07 99 1012.4
20260905194214 23 255 0.0 0.0 0.00 1.07 1.07 99 1012.7
20260905193708 23 260 0.0 0.0 0.00 1.07 1.07 99 1012.7
20260905193203 22 272 0.0 0.0 0.00 1.07 1.07 99 1012.7
20260905192659 22 256 0.0 3.2 0.13 1.07 1.07 99 1012.6
20260905192155 22 279 0.0 1.6 0.13 1.07 1.07 99 1012.7
20260905191654 23 263 0.0 1.6 0.00 1.04 1.04 99 1012.7
20260905191152 23 269 0.0 0.0 0.00 1.04 1.04 99 1013.0
20260905190651 22 264 0.0 1.6 0.00 1.04 1.04 99 1013.1
20260905190149 22 243 1.6 1.6 0.18 1.04 1.04 99 1013.2
20260905185649 23 264 0.0 0.0 0.18 1.04 1.04 99 1013.1
20260905185143 23 264 0.0 0.0 0.00 1.02 1.02 99 1012.9
20260905184638 23 259 0.0 0.0 0.00 1.02 1.02 99 1012.9
20260905184137 22 263 0.0 0.0 0.00 1.02 1.02 99 1012.9
20260905183636 22 263 0.0 0.0 0.00 1.02 1.02 99 1013.1
20260905183132 22 250 0.0 0.0 0.00 1.02 1.02 99 1012.8
20260905182631 22 235 0.0 1.6 0.00 1.02 1.02 99 1012.5
20260905182131 23 168 1.6 1.6 0.00 1.02 1.02 99 1012.6
20260905181626 23 260 0.0 1.6 0.00 1.02 1.02 99 1012.8
20260905181125 23 226 0.0 3.2 0.00 1.02 1.02 99 1012.9
20260905180620 22 223 0.0 1.6 0.00 1.02 1.02 99 1013.1
20260905180115 22 235 0.0 3.2 0.00 1.02 1.02 99 1013.1
20260905175614 23 237 0.0 1.6 0.00 1.02 1.02 99 1013.3
20260905175109 22 297 1.6 1.6 0.00 1.02 1.02 99 1013.7
20260905174605 23 301 1.6 3.2 0.00 1.02 1.02 99 1013.7
20260905174101 22 185 0.0 4.8 0.00 1.02 1.02 99 1013.6
20260905173557 22 270 0.0 4.8 0.00 1.02 1.02 99 1013.3
20260905173052 22 256 0.0 1.6 0.00 1.02 1.02 99 1013.6
20260905172551 22 284 0.0 1.6 0.00 1.02 1.02 99 1013.7
20260905172047 22 206 1.6 3.2 0.13 1.02 1.02 99 1013.6
20260905171543 22 224 0.0 0.0 0.30 1.02 1.02 99 1013.9
20260905171038 22 265 4.8 9.7 0.79 0.99 0.99 99 1014.2
20260905170535 23 204 1.6 3.2 1.19 0.97 0.97 99 1014.6
20260905170030 23 9 3.2 4.8 1.68 0.84 0.84 99 1015.0
20260905165524 23 250 1.6 3.2 3.00 0.74 0.74 99 1014.7
20260905165020 24 260 0.0 4.8 2.77 0.56 0.56 98 1014.8
20260905164514 25 256 0.0 0.0 1.27 0.23 0.23 97 1014.5
20260905164009 25 247 0.0 1.6 0.61 0.10 0.10 93 1014.1
20260905163505 26 239 0.0 0.0 0.13 0.03 0.03 88 1014.0
20260905163000 26 249 1.6 4.8 0.00 0.00 0.00 85 1014.3
20260905162456 27 327 0.0 0.0 0.00 0.00 0.00 84 1013.9
20260905161951 27 294 1.6 1.6 0.00 0.00 0.00 82 1013.7
20260905161450 27 321 3.2 3.2 0.00 0.00 0.00 81 1013.9
20260905160948 28 268 1.6 6.4 0.00 0.00 0.00 79 1013.7
20260905160442 28 259 0.0 3.2 0.00 0.00 0.00 77 1013.6
20260905155942 28 294 4.8 6.4 0.00 0.00 0.00 77 1013.5
20260905155437 28 291 4.8 4.8 0.00 0.00 0.00 77 1013.4
20260905154935 28 307 3.2 9.7 0.00 0.00 0.00 78 1013.3
20260905154431 28 1 1.6 3.2 0.00 0.00 0.00 76 1013.3
20260905153926 28 301 1.6 3.2 0.00 0.00 0.00 78 1013.3
20260905153423 28 26 1.6 6.4 0.00 0.00 0.00 78 1013.7
20260905152922 28 300 1.6 6.4 0.00 0.00 0.00 78 1013.5
20260905152422 28 283 0.0 1.6 0.00 0.00 0.00 78 1013.7
20260905151917 28 321 1.6 3.2 0.00 0.00 0.00 77 1013.6
20260905151412 28 38 1.6 9.7 0.00 0.00 0.00 78 1013.5
20260905150907 28 286 3.2 11.3 0.00 0.00 0.00 76 1013.7
20260905150407 29 266 0.0 4.8 0.00 0.00 0.00 78 1013.5
20260905145904 28 184 0.0 1.6 0.00 0.00 0.00 79 1013.6
20260905145358 28 343 1.6 11.3 0.00 0.00 0.00 78 1013.5
20260905144858 28 160 1.6 11.3 0.00 0.00 0.00 77 1013.6
20260905144353 28 81 0.0 4.8 0.00 0.00 0.00 79 1013.5
20260905143852 28 300 3.2 12.9 0.00 0.00 0.00 78 1013.6
20260905143346 28 180 3.2 6.4 0.00 0.00 0.00 79 1013.5
20260905142846 27 1 4.8 6.4 0.00 0.00 0.00 79 1013.7
20260905142344 27 20 1.6 3.2 0.00 0.00 0.00 80 1013.8
20260905141841 27 241 1.6 9.7 0.00 0.00 0.00 81 1013.8
20260905141336 27 7 8.0 9.7 0.00 0.00 0.00 81 1013.5
20260905140832 27 78 3.2 4.8 0.00 0.00 0.00 82 1013.5
20260905140332 26 276 3.2 6.4 0.00 0.00 0.00 83 1013.3
20260905135830 27 85 3.2 4.8 0.00 0.00 0.00 82 1013.2
20260905135326 27 268 1.6 1.6 0.00 0.00 0.00 84 1013.5
20260905134821 26 335 0.0 1.6 0.00 0.00 0.00 86 1013.3
20260905134314 26 259 0.0 1.6 0.00 0.00 0.00 87 1013.3
20260905133809 25 325 3.2 11.3 0.00 0.00 0.00 88 1013.3
20260905133305 24 37 1.6 4.8 0.00 0.00 0.00 99 1013.2
20260905132803 24 294 0.0 1.6 0.00 0.00 0.00 99 1013.1
20260905132259 23 130 0.0 3.2 0.00 0.00 0.00 99 1013.3
20260905131754 23 359 3.2 3.2 0.00 0.00 0.00 99 1013.4
20260905131249 22 281 0.0 3.2 0.00 0.00 0.00 99 1013.0
20260905130744 23 5 1.6 3.2 0.00 0.00 0.00 99 1012.9
20260905130243 22 328 0.0 3.2 0.00 0.00 0.00 99 1012.9
20260905125738 22 288 1.6 1.6 0.00 0.00 0.00 99 1013.0
20260905125233 22 274 0.0 3.2 0.00 0.00 0.00 99 1013.0
20260905124730 23 355 0.0 0.0 0.00 0.00 0.00 99 1013.2
20260905124226 22 261 0.0 0.0 0.00 0.00 0.00 99 1013.1
20260905123720 23 246 0.0 1.6 0.00 0.00 0.00 99 1013.2
20260905123218 22 245 0.0 1.6 0.00 0.00 0.00 99 1013.3
20260905122717 22 285 0.0 0.0 0.00 0.00 0.00 99 1013.3
20260905122211 22 241 0.0 1.6 0.00 0.00 0.00 99 1013.2
20260905121706 22 260 0.0 0.0 0.00 0.00 0.00 99 1013.2
20260905121203 22 337 1.6 1.6 0.00 0.00 0.00 99 1013.2
20260905120701 22 334 1.6 3.2 0.00 0.00 0.00 99 1013.2
20260905120156 22 272 0.0 1.6 0.00 0.00 0.00 99 1013.2
20260905115656 21 268 0.0 0.0 0.00 0.00 0.00 99 1013.4
20260905115151 21 267 0.0 0.0 0.00 0.00 0.00 99 1013.3
20260905114651 21 265 0.0 0.0 0.00 0.00 0.00 99 1013.2
20260905114149 21 265 0.0 0.0 0.00 0.00 0.00 99 1012.9
20260905113649 21 265 0.0 0.0 0.00 0.00 0.00 99 1013.0
20260905113145 21 265 0.0 0.0 0.00 0.00 0.00 99 1013.1
20260905112639 21 265 0.0 0.0 0.00 0.00 0.00 99 1013.0
20260905112135 20 253 0.0 0.0 0.00 0.00 0.00 99 1013.0
20260905111634 20 253 0.0 0.0 0.00 0.00 0.00 99 1013.0
20260905111134 20 249 0.0 0.0 0.00 0.00 0.00 99 1013.0
20260905110633 20 249 0.0 0.0 0.00 0.00 0.00 99 1013.0
20260905110128 20 249 0.0 0.0 0.00 0.00 0.00 99 1012.9
20260905105624 20 250 0.0 0.0 0.00 0.00 0.00 99 1013.0
20260905105122 20 251 0.0 0.0 0.00 0.00 0.00 99 1013.0
20260905104618 20 255 0.0 0.0 0.00 0.00 0.00 99 1012.8
20260905104113 20 258 0.0 0.0 0.00 0.00 0.00 99 1012.8
20260905103609 20 258 0.0 0.0 0.00 0.00 0.00 99 1012.8
20260905103104 20 258 0.0 0.0 0.00 0.00 0.00 99 1012.4
20260905102554 20 258 0.0 0.0 0.00 0.00 0.00 99 1012.5
20260905102051 20 258 0.0 0.0 0.00 0.00 0.00 99 1012.3
20260905101549 20 259 0.0 0.0 0.00 0.00 0.00 99 1012.4
20260905101047 20 254 0.0 0.0 0.00 0.00 0.00 99 1012.6
20260905100544 20 254 0.0 0.0 0.00 0.00 0.00 99 1012.3
20260905100043 21 250 0.0 0.0 0.00 0.00 0.00 99 1012.4
20260905095538 20 273 0.0 0.0 0.00 0.00 0.00 99 1012.5
20260905095033 20 273 0.0 0.0 0.00 0.00 0.00 99 1012.5
20260905094528 20 275 0.0 0.0 0.00 0.00 0.00 99 1012.3
20260905094027 20 276 0.0 0.0 0.00 0.00 0.00 99 1012.4
20260905093522 20 276 0.0 0.0 0.00 0.00 0.00 99 1012.3
20260905093019 20 277 0.0 0.0 0.00 0.00 0.00 99 1012.6
20260905092519 21 280 0.0 0.0 0.00 0.00 0.00 99 1012.3
20260905092015 21 263 0.0 0.0 0.00 0.00 0.00 99 1012.1
20260905091513 21 261 0.0 0.0 0.00 0.00 0.00 99 1012.1
20260905091008 21 265 0.0 0.0 0.00 0.00 0.00 99 1012.1
20260905090503 21 308 0.0 0.0 0.00 0.00 0.00 99 1012.3
20260905090002 21 261 0.0 0.0 0.00 0.00 0.00 99 1012.2
20260905085501 21 261 0.0 0.0 0.00 0.00 0.00 99 1012.3
20260905084957 21 270 0.0 0.0 0.00 0.00 0.00 99 1012.2
20260905084457 21 258 0.0 0.0 0.00 0.00 0.00 99 1012.3
20260905083952 21 258 0.0 0.0 0.00 0.00 0.00 99 1012.4
20260905083447 21 266 0.0 0.0 0.00 0.00 0.00 99 1012.2
20260905082943 21 255 0.0 0.0 0.00 0.00 0.00 99 1012.3
20260905082439 21 255 0.0 0.0 0.00 0.00 0.00 99 1012.2
20260905081934 21 260 0.0 0.0 0.00 0.00 0.00 99 1012.3
20260905081434 21 260 0.0 0.0 0.00 0.00 0.00 99 1012.3
20260905080932 21 269 0.0 0.0 0.00 0.00 0.00 99 1012.3
20260905080427 21 270 0.0 0.0 0.00 0.00 0.00 99 1012.3
20260905075926 21 257 0.0 0.0 0.00 0.00 0.00 99 1012.4
20260905075421 21 255 0.0 0.0 0.00 0.00 0.00 99 1012.4
20260905074920 21 248 0.0 0.0 0.00 0.00 0.00 99 1012.4
20260905074416 21 250 0.0 0.0 0.00 0.00 0.00 99 1012.7
20260905073911 21 259 0.0 0.0 0.00 0.00 0.00 99 1012.7
20260905073406 21 259 0.0 0.0 0.00 0.00 0.00 99 1012.7
20260905072902 21 269 0.0 0.0 0.00 0.00 0.00 99 1012.7
20260905072356 21 270 0.0 0.0 0.00 0.00 0.00 99 1012.7
20260905071852 21 270 0.0 0.0 0.00 0.00 0.00 99 1012.7
20260905071349 21 267 0.0 0.0 0.00 0.00 0.00 99 1012.7
20260905070843 21 266 0.0 0.0 0.00 0.00 0.00 99 1012.7
20260905070339 21 258 0.0 0.0 0.00 0.00 0.00 99 1012.7
20260905065838 21 257 0.0 0.0 0.00 0.00 0.00 99 1012.8
20260905065337 21 256 0.0 0.0 0.00 0.00 0.00 99 1013.1
20260905064832 21 259 0.0 0.0 0.00 0.00 0.00 99 1012.8
20260905064328 21 266 0.0 0.0 0.00 0.00 0.00 99 1012.9
20260905063826 21 250 0.0 0.0 0.00 0.00 0.00 99 1012.9
20260905063322 21 255 0.0 0.0 0.00 0.00 0.00 99 1013.2
20260905062819 21 248 0.0 0.0 0.00 0.00 0.00 99 1013.1
20260905062313 21 266 0.0 0.0 0.00 0.00 0.00 99 1013.1
20260905061808 21 272 0.0 0.0 0.00 0.00 0.00 99 1013.3
20260905061308 21 250 0.0 0.0 0.00 0.00 0.00 99 1013.2
20260905060802 21 258 0.0 0.0 0.00 0.00 0.00 99 1013.5
20260905060259 21 263 0.0 0.0 0.00 0.00 0.00 99 1013.4
20260905055757 21 263 0.0 0.0 0.00 0.00 0.00 99 1013.6
20260905055252 21 267 0.0 0.0 0.00 0.00 0.00 99 1013.6
20260905054747 21 256 0.0 0.0 0.00 0.00 0.00 99 1013.6
20260905054239 21 250 0.0 0.0 0.00 0.00 0.00 99 1013.7
20260905053737 21 248 0.0 0.0 0.00 0.00 0.00 99 1013.8
20260905053233 21 257 0.0 1.6 0.00 0.00 0.00 99 1013.9
20260905052732 21 253 0.0 0.0 0.00 0.00 0.00 99 1014.0
20260905052227 21 254 0.0 0.0 0.00 0.00 0.00 99 1014.2
20260905051726 21 263 0.0 0.0 0.00 0.00 0.00 99 1014.6
20260905051223 21 247 0.0 0.0 0.00 0.00 0.00 99 1014.4
20260905050720 21 256 0.0 0.0 0.00 0.00 0.00 99 1014.4
20260905050216 21 254 0.0 0.0 0.00 0.00 0.00 99 1014.5
20260905045715 21 259 0.0 0.0 0.00 0.00 0.00 99 1014.3
20260905045211 21 264 0.0 0.0 0.00 0.00 0.00 99 1014.7
20260905044706 21 266 0.0 0.0 0.00 0.00 0.00 99 1014.7
20260905044202 21 266 0.0 0.0 0.00 0.00 0.00 99 1014.8
20260905043700 21 266 0.0 0.0 0.00 0.00 0.00 99 1014.7
20260905043155 21 263 0.0 0.0 0.00 0.00 0.00 99 1014.8
20260905042654 22 256 0.0 0.0 0.00 0.00 0.00 99 1014.9
20260905042148 22 257 0.0 0.0 0.00 0.00 0.00 99 1014.9
20260905041644 22 254 0.0 0.0 0.00 0.00 0.00 99 1014.9
20260905041139 22 254 0.0 0.0 0.00 0.00 0.00 99 1015.0
20260905040634 22 250 0.0 0.0 0.00 0.00 0.00 99 1015.0
20260905040133 22 256 0.0 0.0 0.00 1.80 1.80 99 1014.9
20260905035628 22 250 0.0 0.0 0.00 1.80 1.80 99 1014.9
20260905035125 22 190 1.6 3.2 0.00 1.80 1.80 99 1014.9
20260905034620 22 254 0.0 1.6 0.00 1.80 1.80 99 1015.0
20260905034120 22 258 0.0 0.0 0.00 1.80 1.80 99 1015.2
20260905033614 22 245 0.0 0.0 0.00 1.80 1.80 99 1015.2
20260905033110 22 250 0.0 0.0 0.00 1.80 1.80 99 1015.1
20260905032609 22 261 0.0 0.0 0.00 1.80 1.80 99 1015.0
20260905032104 22 242 0.0 0.0 0.00 1.80 1.80 99 1015.1
20260905031600 22 264 0.0 0.0 0.00 1.80 1.80 99 1014.9
20260905031100 22 256 0.0 0.0 0.00 1.80 1.80 99 1014.8
20260905030555 22 259 0.0 0.0 0.00 1.80 1.80 99 1014.9
20260905030050 22 250 0.0 0.0 0.00 1.80 1.80 99 1014.8
20260905025545 22 255 0.0 0.0 0.00 1.80 1.80 99 1014.9
20260905025041 22 258 0.0 0.0 0.00 1.80 1.80 99 1015.0
20260905024536 22 267 0.0 0.0 0.00 1.80 1.80 99 1015.3
20260905024032 22 260 0.0 0.0 0.00 1.80 1.80 99 1015.2
20260905023527 22 243 0.0 1.6 0.00 1.80 1.80 99 1015.2
20260905023026 22 255 0.0 1.6 0.00 1.80 1.80 99 1015.1
20260905022521 22 256 0.0 0.0 0.00 1.80 1.80 99 1015.0
20260905022016 22 259 0.0 0.0 0.00 1.80 1.80 99 1015.0
20260905021516 22 250 0.0 0.0 0.00 1.80 1.80 99 1015.2
20260905021011 22 250 0.0 0.0 0.00 1.80 1.80 99 1015.4
20260905020511 22 258 0.0 0.0 0.00 1.80 1.80 99 1015.3
20260905020007 22 254 0.0 0.0 0.00 1.80 1.80 99 1014.9
20260905015504 22 250 0.0 0.0 0.00 1.80 1.80 99 1015.1
20260905015004 22 259 0.0 0.0 0.00 1.80 1.80 99 1015.0
20260905014459 22 250 0.0 0.0 0.00 1.80 1.80 99 1015.3
20260905013954 22 247 0.0 0.0 0.00 1.80 1.80 99 1015.2
20260905013450 22 255 0.0 0.0 0.00 1.80 1.80 99 1014.9
20260905012946 22 254 0.0 0.0 0.00 1.80 1.80 99 1014.6
20260905012440 22 254 0.0 0.0 0.00 1.80 1.80 99 1014.8
20260905011937 22 250 0.0 1.6 0.00 1.80 1.80 99 1014.6
20260905011433 22 247 0.0 0.0 0.00 1.80 1.80 99 1014.5
20260905010928 22 219 0.0 0.0 0.00 1.80 1.80 99 1014.4
20260905010423 22 247 0.0 0.0 0.00 1.80 1.80 99 1014.2
20260905005919 22 247 0.0 0.0 0.00 1.80 1.80 99 1014.2
20260905005415 22 250 0.0 0.0 0.00 1.80 1.80 99 1014.4
20260905004910 22 264 0.0 0.0 0.00 1.80 1.80 99 1014.0
20260905004410 22 117 3.2 3.2 0.00 1.80 1.80 99 1014.0
20260905003905 22 258 0.0 0.0 0.00 1.80 1.80 99 1014.2
20260905003400 22 259 0.0 0.0 0.00 1.80 1.80 99 1014.4
20260905002856 22 248 0.0 0.0 0.00 1.80 1.80 99 1013.7
20260905002350 22 256 0.0 0.0 0.00 1.80 1.80 99 1013.9
20260905001845 22 256 0.0 0.0 0.00 1.80 1.80 99 1013.8
20260905001344 22 260 0.0 0.0 0.00 1.80 1.80 99 1013.8
20260905000839 22 247 0.0 0.0 0.00 1.80 1.80 99 1013.9
20260905000335 22 219 0.0 1.6 0.00 1.80 1.80 99 1013.6
20260904235831 22 262 0.0 0.0 0.00 1.80 1.80 99 1013.5
20260904235326 22 343 1.6 1.6 0.00 1.80 1.80 99 1013.3